SCP
-0 -0 0 0 0 0 0 0 0 0 0 0 0 0 0 0 0 0 0 -0 0 0 -0 0 -0 -0 -0 -0 -0 -0 -0 0 0 0 0 -0 -0 -0 -0 -0 -0 -0 -0 -0 -0 -0 -0 -0 -0
-0 -0 0 0 0 0 0 0 0 0 0 0 0 0 0 0 0 0 0 0 0 0 0 0 -0 -0 -0 0 0 0 0 0 0 0 0 0 0 0 0 0 0 -0 -0 -0 -0 -0 -0 -0 -0
0 0 0 0 0 0 0 0 0 0 0 0 0 0 0 0 0 0 0 0 0 0 0 0 0 0 -0 -0 0 0 0 0 0 0 0 0 0 0 0 0 0 0 0 0 0 -0 -0 -0 -0
0 0 0 0 0 0 0 0 0 0 0 0 0 0 0 0 0 0 0 0 0 0 0 0 0 0 0 0 0 0 0 0 0 0 0 0 0 0 0 0 0 0 0 0 0 0 0 0 0
0 0 0 0 0 0 0 0 0 0 0 0 0 0 0 0 0 0 0 0 0 0 0 0 0 0 0 0 0 0 0 0 0 0 0 0 0 0 0 0 0 0 0 0 0 0 0 0 0
0 0 0 0 0 0 0 0 0 0 0 0 0 0 0 0 0 0 0 0 0 0 0 0 0 0 0 0 0 0 0 0 0 0 0 0 0 0 0 0 0 0 0 0 0 0 0 0 0
0 0 0 0 0 0 0 0 0 0 0 0 0 0 0 0 0 0 0 0 0 0 0 0 0 0 0 0 0 0 0 0 0 0 0 0 0 0 0 0 0 0 0 0 0 0 0 0 0
0 0 0 0 0 0 0 0 0 0 0 0 0 0 0 0 0 0 0 0 0 0 0 0 0 0 0 0 0 0 0 0 0 0 0 0 0 0 0 0 0 0 0 0 0 0 0 0 0
0 0 0 0 0 0 0 0 0 0 0 0 0 0 0 0 0 0 0 0 0 0 0 0 0 0 0 0 0 0 0 0 0 0 0 0 0 0 0 0 0 0 0 0 0 0 0 0 0
0 0 0 0 0 0 0 0 0 0 0 0 0 0 0 0 0 0 0 0 0 0 0 0 0 0 0 0 0 0 0 0 0 0 0 0 0 0 0 0 0 0 0 0 0 0 0 0 0
0 0 0 0 0 0 0 0 0 0 0 0 0 0 0 0 0 0 0 0 0 0 0 0 0 0 1 1 0 0 0 0 0 0 0 0 0 0 0 0 0 0 0 0 0 0 0 0 0
0 0 0 0 0 0 0 0 0 0 0 0 0 0 0 0 0 0 0 0 0 0 0 0 0 0 0 1 0 0 0 0 0 0 0 0 0 0 0 0 0 0 0 0 0 0 0 0 0
0 0 0 0 0 0 0 0 0 0 0 0 0 0 0 0 0 0 0 0 0 0 0 0 0 0 0 0 0 0 0 0 0 0 0 0 0 0 0 0 0 0 0 0 0 0 0 0 0
0 0 0 0 0 0 0 0 0 0 0 0 0 0 0 0 0 0 0 0 0 0 0 0 0 0 0 0 0 0 0 0 0 0 0 0 0 0 0 0 0 0 0 0 0 0 0 0 0
0 0 0 0 0 0 0 0 0 0 0 0 0 0 0 0 0 0 0 0 0 0 0 0 0 0 0 0 0 0 0 0 0 0 0 0 0 0 0 0 0 0 0 0 0 0 0 0 0
0 0 0 0 0 0 0 0 0 0 0 0 0 0 0 0 0 0 0 0 0 0 0 0 0 0 0 0 0 0 0 0 0 0 0 0 0 0 0 0 0 0 0 0 0 0 0 0 0
0 0 0 0 0 0 0 0 0 0 0 0 0 0 0 0 0 0 0 0 0 0 0 0 0 0 0 0 0 0 0 0 0 0 0 0 0 0 0 0 0 0 0 0 0 0 0 0 0
0 0 0 0 0 0 0 0 0 0 0 0 0 0 0 0 0 0 0 0 0 0 0 0 0 0 0 0 0 0 0 0 0 0 0 0 0 0 0 0 0 0 0 0 0 0 0 0 0
0 0 0 0 0 0 0 0 0 0 0 0 0 0 0 0 0 0 0 0 0 0 0 0 0 0 0 0 0 0 0 0 0 0 0 0 0 0 0 0 0 0 0 0 0 0 0 0 0
0 0 0 0 0 0 0 0 0 -0 0 0 0 0 -0 -0 0 0 0 0 0 0 0 0 0 0 0 0 0 0 0 0 0 0 0 0 0 0 0 0 0 0 0 0 0 0 0 0 0
0 0 0 0 0 0 0 0 0 0 0 0 0 0 0 0 0 0 0 0 0 0 0 0 0 0 0 0 0 0 0 0 0 0 0 -0 -0 -0 0 0 0 0 0 0 0 0 0 0 0
0 0 0 0 0 0 0 0 0 0 0 0 0 0 0 0 0 0 0 0 0 0 0 0 0 0 0 0 0 0 0 0 0 0 0 0 -0 -0 0 0 0 0 0 0 0 0 0 0 0
0 0 0 0 0 0 0 0 0 0 0 0 0 0 0 0 0 0 0 0 0 0 0 0 0 0 0 0 0 0 0 0 0 0 0 0 0 0 -0 0 0 0 0 0 0 0 0 0 0
0 0 0 0 0 0 0 0 0 0 0 0 0 0 0 0 0 0 0 0 0 0 0 0 0 0 0 0 0 0 0 0 0 0 0 0 0 0 0 0 0 0 0 0 0 0 0 0 0
0 0 0 0 0 0 0 0 0 0 0 0 0 0 0 0 0 0 0 0 0 0 0 0 0 0 0 0 0 0 0 0 0 0 0 0 0 0 0 0 0 0 0 0 0 0 0 0 0
0 0 0 0 0 0 0 0 0 0 0 0 0 0 0 0 0 0 0 0 0 0 0 0 0 0 0 0 0 0 0 0 0 0 0 0 0 0 0 0 0 0 0 0 0 0 0 0 0
0 0 0 0 0 0 0 0 0 0 0 0 0 0 0 0 0 0 0 0 0 0 0 0 0 0 0 0 0 0 0 0 0 0 0 0 0 0 0 0 0 0 0 0 0 0 0 0 0
0 0 0 0 0 0 0 0 0 0 0 0 0 0 0 0 0 0 0 0 0 0 0 0 0 0 0 0 0 0 0 0 0 0 0 0 0 0 0 0 0 0 0 0 0 0 0 0 0
0 0 0 0 0 0 0 0 0 0 0 0 0 0 0 0 0 0 0 0 0 0 0 0 0 0 0 0 0 0 0 0 0 0 0 0 0 0 0 0 0 0 0 0 0 0 0 0 0
0 0 0 0 0 0 0 0 0 0 0 0 0 0 0 0 0 0 0 0 0 0 0 0 0 0 0 0 0 0 0 0 0 0 0 0 0 0 0 0 0 0 0 0 0 0 0 0 0
Wind_Speed_500mb
12 13 18 4 6 9 6 9 4 10 2 3 4 2 4 6 4 6 6 13 6 13 30 43 41 40 37 31 28 28 25 23 25 29 30 30 32 33 30 31 36 36 34 34 35 33 33 35 42
11 9 8 3 7 3 8 8 4 6 8 13 0 1 5 4 4 1 8 12 5 10 19 41 43 39 37 34 34 34 29 26 25 25 26 28 27 29 30 33 35 37 35 36 38 37 37 43 46
12 10 4 7 6 9 9 7 8 18 26 9 3 6 3 4 4 1 3 4 6 14 13 33 42 41 39 38 39 37 34 30 21 26 27 28 28 29 31 32 34 34 33 34 39 41 43 46 46
6 3 5 6 13 12 10 3 9 22 20 12 2 6 6 2 5 7 6 3 7 14 16 21 40 42 41 40 38 37 37 33 26 27 33 30 29 29 30 32 31 33 32 34 39 41 44 47 45
7 2 2 3 11 9 9 9 15 8 13 18 10 5 3 4 3 5 7 7 8 13 18 19 35 43 42 42 41 40 39 35 32 29 36 35 35 33 33 32 33 35 32 31 37 41 42 45 41
5 5 3 7 11 10 6 16 11 5 10 15 14 2 4 9 5 4 7 8 8 10 12 20 27 40 44 43 42 42 41 39 37 33 37 40 37 38 34 35 30 32 34 32 37 39 40 40 42
10 7 6 7 8 11 2 16 5 7 13 4 16 3 3 4 5 5 11 9 11 15 17 19 27 32 45 44 43 43 42 40 40 37 37 45 44 41 37 35 38 37 34 36 39 34 32 37 41
10 8 3 8 6 11 10 13 4 14 9 20 19 2 5 12 6 6 13 18 19 24 25 28 29 30 37 48 46 46 45 43 43 42 40 47 49 45 46 44 41 37 25 39 39 36 37 35 36
9 6 6 8 8 6 13 12 7 18 19 19 6 3 3 10 12 7 5 13 26 32 35 40 44 42 34 40 50 48 50 49 47 48 46 49 50 50 48 50 48 43 35 35 41 39 36 36 40
7 7 15 4 3 6 15 6 18 10 15 26 29 26 24 35 33 33 27 21 19 24 33 42 49 50 47 44 46 55 57 56 56 55 51 55 53 54 54 52 57 53 49 41 44 41 35 39 41
4 8 3 0 3 12 13 20 9 8 12 21 17 40 47 43 39 38 38 36 32 26 28 29 37 51 61 62 56 59 60 64 61 60 58 60 60 57 55 60 59 58 58 54 51 47 41 45 50
2 0 1 5 6 12 11 13 15 29 35 30 37 33 27 24 27 26 27 29 33 31 33 32 34 41 58 67 71 64 65 65 69 69 67 66 69 66 64 67 66 63 63 67 60 52 48 51 50
1 7 13 13 31 24 20 22 19 35 48 38 23 17 25 34 45 45 45 45 42 42 43 37 38 40 46 58 70 76 73 69 70 77 76 75 75 72 68 69 73 69 67 71 65 60 56 53 53
9 17 31 15 11 9 9 13 15 16 15 19 26 37 43 51 61 60 55 55 54 53 51 55 47 48 50 49 53 72 81 78 76 83 84 83 81 78 72 76 79 78 72 72 68 66 67 56 54
8 10 12 2 7 6 13 18 16 26 15 31 44 66 67 64 55 53 47 45 43 42 39 42 54 48 51 54 52 48 70 86 85 86 94 91 92 86 79 82 88 88 81 78 74 72 71 66 58
8 7 11 3 14 2 13 18 17 22 30 52 74 82 67 48 39 26 24 31 34 38 37 31 35 39 39 46 49 51 54 70 86 90 92 101 100 98 91 87 98 94 91 86 84 84 79 75 70
14 5 7 18 5 11 6 18 29 49 48 58 58 62 51 39 34 34 40 42 43 43 32 32 34 37 37 36 41 48 50 60 65 87 98 103 108 108 105 98 97 103 100 95 93 90 87 83 76
6 8 9 13 6 7 20 40 39 57 37 51 60 52 42 39 36 36 33 33 33 32 31 31 32 34 37 41 44 48 51 48 59 69 84 103 103 112 114 114 105 111 110 104 102 98 95 89 80
3 7 13 11 9 11 16 28 47 60 39 42 42 31 35 38 35 26 25 20 14 16 21 27 31 29 31 30 34 40 52 52 53 58 64 75 94 109 123 120 113 112 118 114 112 106 103 100 92
9 10 12 12 4 9 19 45 47 31 17 21 19 31 32 29 27 20 23 16 17 21 23 28 35 37 38 39 38 40 44 45 48 54 64 69 80 102 115 125 123 117 112 117 118 115 110 109 99
8 9 4 10 14 4 21 20 12 9 11 23 29 23 22 26 28 32 31 29 26 21 27 37 45 51 58 56 56 58 59 65 67 68 68 65 63 74 99 124 125 126 120 111 126 122 115 118 111
7 7 3 11 12 3 12 12 15 3 18 14 29 17 21 40 33 25 21 25 30 43 52 56 72 71 67 67 72 78 82 87 89 84 81 76 67 68 99 101 121 132 121 131 134 131 122 117 121
8 2 6 2 5 9 10 5 16 6 14 19 15 17 33 46 37 39 42 42 53 64 63 80 79 78 84 86 85 82 88 97 101 104 99 91 80 63 77 93 132 121 128 142 135 129 128 122 118
5 6 8 8 7 5 9 10 11 9 13 8 9 23 51 56 57 52 52 64 81 83 92 88 88 86 86 93 98 99 101 96 97 100 106 108 87 83 80 100 96 136 137 130 133 125 130 129 125
5 11 9 12 7 11 9 4 25 17 16 11 15 46 47 57 52 56 74 98 100 96 101 99 93 97 88 100 109 113 114 103 103 101 103 104 88 84 80 90 111 96 124 133 142 129 127 130 128
6 10 9 11 7 12 3 15 13 15 15 23 40 39 37 51 59 78 95 98 97 97 97 97 99 105 96 102 110 112 103 106 105 103 101 102 92 86 89 82 79 100 115 130 139 134 124 128 124
8 5 6 6 2 6 7 15 22 27 18 12 23 25 55 75 81 87 95 92 93 91 94 96 95 90 95 97 103 99 94 92 96 97 96 97 91 86 80 82 85 103 78 134 132 150 129 126 113
6 13 8 6 7 13 12 13 21 11 14 16 14 31 64 77 83 89 89 87 86 95 97 90 86 99 95 86 81 78 77 81 90 91 87 88 90 82 80 80 74 73 117 105 122 131 123 128 101
6 6 6 6 8 8 9 17 17 17 13 17 15 44 65 78 84 86 90 87 83 84 92 87 82 83 89 87 82 81 81 83 83 88 89 83 79 87 78 80 76 74 102 106 127 122 124 125 105
7 12 13 8 11 8 5 24 8 13 11 7 42 67 82 82 89 96 89 82 93 93 88 78 78 80 82 81 80 83 80 83 83 83 86 82 83 80 81 91 86 83 98 103 99 133 126 132 111
Wind_Direction_500mb
296 314 325 312 53 63 279 264 251 315 342 359 9 250 233 22 142 201 144 159 107 158 177 187 191 193 195 193 194 202 206 205 197 190 188 187 189 187 181 163 159 154 154 150 154 152 149 143 136
272 304 325 83 92 81 260 262 222 295 301 313 80 29 358 302 24 41 131 194 129 167 183 189 192 196 197 191 193 203 208 210 208 196 183 179 177 170 168 161 159 156 156 157 156 154 148 144 141
279 307 323 96 122 190 211 222 338 325 314 296 110 69 45 352 27 46 325 241 192 183 194 199 197 198 199 196 199 205 207 213 214 188 183 180 174 172 171 169 162 160 159 158 158 155 153 152 145
255 244 67 110 221 247 208 144 319 329 335 278 254 97 117 160 175 246 298 249 219 202 205 208 207 204 205 203 204 206 208 215 214 198 183 183 182 178 175 176 165 163 163 162 161 159 158 158 154
217 101 59 254 258 261 271 347 340 312 292 298 307 219 161 135 200 248 269 246 231 214 217 218 215 214 213 211 210 210 213 215 216 213 187 187 186 182 188 170 178 169 165 168 164 160 159 162 158
137 88 73 240 251 274 295 352 323 320 312 309 350 305 159 142 116 211 234 269 248 248 254 232 221 223 223 220 219 217 218 221 222 218 196 188 189 192 187 178 174 178 170 168 162 161 162 163 161
130 99 220 260 260 303 320 348 91 308 300 314 329 229 271 161 105 198 209 224 234 242 255 244 236 235 231 228 226 225 225 226 229 224 211 193 192 192 191 188 183 188 180 168 157 155 163 168 168
168 102 176 251 256 261 357 355 2 26 295 329 7 36 0 359 10 333 230 230 225 237 242 244 248 244 236 231 229 230 227 229 233 230 222 198 194 194 190 191 189 171 163 161 162 166 169 177 170
135 77 207 243 190 268 1 11 345 325 283 329 36 61 113 343 309 256 295 240 240 243 241 235 235 240 244 242 237 232 232 230 235 231 223 206 200 198 195 194 184 173 176 179 172 175 177 177 175
125 145 217 266 8 322 323 342 312 314 288 288 277 242 263 282 291 297 293 278 267 252 261 258 246 243 234 243 240 238 234 230 233 228 221 215 208 202 199 197 173 180 183 186 184 188 189 178 175
173 202 232 88 67 350 312 306 271 239 262 246 287 305 306 299 290 285 281 280 281 270 264 266 259 251 245 238 240 240 237 233 228 232 224 220 214 208 206 187 187 190 187 185 193 194 194 187 184
268 8 131 250 249 316 279 281 268 240 260 284 302 302 308 317 313 302 289 293 281 269 253 253 263 261 252 245 242 245 244 238 228 229 230 224 222 217 210 198 196 199 194 191 194 197 193 191 192
14 315 299 273 291 280 275 264 273 276 280 281 286 304 299 305 313 308 299 293 284 273 274 265 253 256 256 254 250 246 243 247 244 229 232 226 226 225 215 206 197 200 203 199 199 199 195 196 193
322 304 297 305 318 325 313 283 334 279 317 267 292 308 300 291 297 301 294 288 286 286 275 270 269 256 256 261 256 252 249 246 246 235 232 233 230 228 224 205 197 199 207 205 207 204 197 199 200
316 329 317 193 21 349 346 296 228 281 280 288 298 303 299 296 290 287 294 295 292 288 284 274 269 270 261 261 266 261 258 246 248 244 235 234 229 227 225 213 202 199 205 208 209 207 202 197 203
30 43 352 12 18 347 62 276 276 286 289 299 299 302 304 306 305 301 303 303 301 296 282 279 272 269 267 260 264 265 261 256 252 246 242 236 234 229 225 219 209 203 205 207 211 208 203 201 199
17 316 312 322 340 354 57 277 267 288 294 291 293 297 299 311 313 316 309 295 290 287 292 283 276 273 274 266 264 266 268 256 255 245 245 240 237 232 227 221 214 207 205 207 210 209 210 201 199
297 309 274 248 270 9 282 267 280 284 286 284 292 289 294 304 316 319 315 297 280 274 276 288 286 283 279 275 270 269 271 266 256 257 247 242 237 238 234 224 215 209 206 207 210 211 207 205 203
191 246 248 260 276 318 267 282 288 294 291 278 275 286 297 306 310 311 319 333 302 273 280 281 282 283 289 291 290 287 273 274 266 263 258 252 244 244 237 230 220 213 210 210 210 209 208 198 199
234 258 273 286 297 322 302 295 280 282 255 233 274 292 298 312 310 300 294 278 270 267 266 263 263 273 277 283 280 278 282 279 282 275 267 259 267 232 241 230 222 216 213 213 214 210 202 204 200
227 209 251 238 328 312 326 309 316 327 273 263 271 291 300 308 303 293 274 257 257 276 285 289 288 280 279 278 275 273 271 269 268 265 265 276 270 265 232 234 222 213 206 215 217 213 210 201 194
280 174 300 313 17 295 55 286 295 276 290 263 277 283 310 313 297 260 254 261 275 285 290 301 302 289 280 276 279 281 275 273 268 264 266 264 268 263 254 230 229 219 211 211 220 218 213 214 201
234 342 293 267 101 39 328 78 268 314 277 272 265 268 303 324 267 260 257 272 290 295 292 296 302 291 282 284 285 290 285 276 269 269 264 263 259 259 255 261 218 212 210 210 215 218 214 216 216
334 339 58 55 85 352 218 144 261 232 213 243 267 311 314 301 285 276 281 290 299 299 299 300 294 292 279 281 282 285 288 282 274 263 263 261 256 253 251 249 236 219 208 210 213 220 219 216 215
75 45 338 342 0 230 162 55 249 257 247 241 273 296 310 316 300 281 300 309 306 303 303 303 299 296 283 276 284 286 286 279 274 267 260 258 251 244 243 242 242 221 216 209 215 211 221 216 217
90 116 151 262 281 282 313 234 246 217 262 268 272 295 299 309 306 297 303 305 306 304 304 302 299 296 288 285 284 284 279 276 270 265 261 255 249 241 239 241 241 242 213 210 215 214 214 218 220
136 130 128 90 158 349 245 280 284 269 261 221 270 286 306 309 308 307 306 302 304 302 303 300 294 286 283 281 280 278 270 265 262 260 258 254 247 240 239 236 234 229 229 209 218 214 211 212 221
117 146 70 16 308 291 275 271 238 252 245 277 285 300 306 303 306 306 305 303 306 309 306 300 291 290 286 280 277 268 263 260 258 256 254 252 242 231 233 231 232 233 227 214 223 218 213 215 215
134 165 114 127 168 218 296 274 215 223 219 255 276 304 305 304 306 309 307 310 309 305 311 307 300 293 289 284 276 270 265 259 253 253 249 241 240 235 225 223 226 226 219 221 219 225 216 220 212
150 181 153 149 235 238 216 270 189 211 197 269 312 311 311 306 309 314 309 310 317 320 313 302 299 297 292 288 283 277 271 265 261 251 248 244 239 233 232 225 224 224 219 219 216 217 215 218 217
Wind_Speed_850mb
12 13 18 4 6 9 6 9 4 10 2 3 4 2 4 6 4 6 6 13 6 13 30 43 41 40 37 31 28 28 25 23 25 29 30 30 32 33 30 31 36 36 34 34 35 33 33 35 42
11 9 8 3 7 3 8 8 4 6 8 13 0 1 5 4 4 1 8 12 5 10 19 41 43 39 37 34 34 34 29 26 25 25 26 28 27 29 30 33 35 37 35 36 38 37 37 43 46
12 10 4 7 6 9 9 7 8 18 26 9 3 6 3 4 4 1 3 4 6 14 13 33 42 41 39 38 39 37 34 30 21 26 27 28 28 29 31 32 34 34 33 34 39 41 43 46 46
6 3 5 6 13 12 10 3 9 22 20 12 2 6 6 2 5 7 6 3 7 14 16 21 40 42 41 40 38 37 37 33 26 27 33 30 29 29 30 32 31 33 32 34 39 41 44 47 45
7 2 2 3 11 9 9 9 15 8 13 18 10 5 3 4 3 5 7 7 8 13 18 19 35 43 42 42 41 40 39 35 32 29 36 35 35 33 33 32 33 35 32 31 37 41 42 45 41
5 5 3 7 11 10 6 16 11 5 10 15 14 2 4 9 5 4 7 8 8 10 12 20 27 40 44 43 42 42 41 39 37 33 37 40 37 38 34 35 30 32 34 32 37 39 40 40 42
10 7 6 7 8 11 2 16 5 7 13 4 16 3 3 4 5 5 11 9 11 15 17 19 27 32 45 44 43 43 42 40 40 37 37 45 44 41 37 35 38 37 34 36 39 34 32 37 41
10 8 3 8 6 11 10 13 4 14 9 20 19 2 5 12 6 6 13 18 19 24 25 28 29 30 37 48 46 46 45 43 43 42 40 47 49 45 46 44 41 37 25 39 39 36 37 35 36
9 6 6 8 8 6 13 12 7 18 19 19 6 3 3 10 12 7 5 13 26 32 35 40 44 42 34 40 50 48 50 49 47 48 46 49 50 50 48 50 48 43 35 35 41 39 36 36 40
7 7 15 4 3 6 15 6 18 10 15 26 29 26 24 35 33 33 27 21 19 24 33 42 49 50 47 44 46 55 57 56 56 55 51 55 53 54 54 52 57 53 49 41 44 41 35 39 41
4 8 3 0 3 12 13 20 9 8 12 21 17 40 47 43 39 38 38 36 32 26 28 29 37 51 61 62 56 59 60 64 61 60 58 60 60 57 55 60 59 58 58 54 51 47 41 45 50
2 0 1 5 6 12 11 13 15 29 35 30 37 33 27 24 27 26 27 29 33 31 33 32 34 41 58 67 71 64 65 65 69 69 67 66 69 66 64 67 66 63 63 67 60 52 48 51 50
1 7 13 13 31 24 20 22 19 35 48 38 23 17 25 34 45 45 45 45 42 42 43 37 38 40 46 58 70 76 73 69 70 77 76 75 75 72 68 69 73 69 67 71 65 60 56 53 53
9 17 31 15 11 9 9 13 15 16 15 19 26 37 43 51 61 60 55 55 54 53 51 55 47 48 50 49 53 72 81 78 76 83 84 83 81 78 72 76 79 78 72 72 68 66 67 56 54
8 10 12 2 7 6 13 18 16 26 15 31 44 66 67 64 55 53 47 45 43 42 39 42 54 48 51 54 52 48 70 86 85 86 94 91 92 86 79 82 88 88 81 78 74 72 71 66 58
8 7 11 3 14 2 13 18 17 22 30 52 74 82 67 48 39 26 24 31 34 38 37 31 35 39 39 46 49 51 54 70 86 90 92 101 100 98 91 87 98 94 91 86 84 84 79 75 70
14 5 7 18 5 11 6 18 29 49 48 58 58 62 51 39 34 34 40 42 43 43 32 32 34 37 37 36 41 48 50 60 65 87 98 103 108 108 105 98 97 103 100 95 93 90 87 83 76
6 8 9 13 6 7 20 40 39 57 37 51 60 52 42 39 36 36 33 33 33 32 31 31 32 34 37 41 44 48 51 48 59 69 84 103 103 112 114 114 105 111 110 104 102 98 95 89 80
3 7 13 11 9 11 16 28 47 60 39 42 42 31 35 38 35 26 25 20 14 16 21 27 31 29 31 30 34 40 52 52 53 58 64 75 94 109 123 120 113 112 118 114 112 106 103 100 92
9 10 12 12 4 9 19 45 47 31 17 21 19 31 32 29 27 20 23 16 17 21 23 28 35 37 38 39 38 40 44 45 48 54 64 69 80 102 115 125 123 117 112 117 118 115 110 109 99
8 9 4 10 14 4 21 20 12 9 11 23 29 23 22 26 28 32 31 29 26 21 27 37 45 51 58 56 56 58 59 65 67 68 68 65 63 74 99 124 125 126 120 111 126 122 115 118 111
7 7 3 11 12 3 12 12 15 3 18 14 29 17 21 40 33 25 21 25 30 43 52 56 72 71 67 67 72 78 82 87 89 84 81 76 67 68 99 101 121 132 121 131 134 131 122 117 121
8 2 6 2 5 9 10 5 16 6 14 19 15 17 33 46 37 39 42 42 53 64 63 80 79 78 84 86 85 82 88 97 101 104 99 91 80 63 77 93 132 121 128 142 135 129 128 122 118
5 6 8 8 7 5 9 10 11 9 13 8 9 23 51 56 57 52 52 64 81 83 92 88 88 86 86 93 98 99 101 96 97 100 106 108 87 83 80 100 96 136 137 130 133 125 130 129 125
5 11 9 12 7 11 9 4 25 17 16 11 15 46 47 57 52 56 74 98 100 96 101 99 93 97 88 100 109 113 114 103 103 101 103 104 88 84 80 90 111 96 124 133 142 129 127 130 128
6 10 9 11 7 12 3 15 13 15 15 23 40 39 37 51 59 78 95 98 97 97 97 97 99 105 96 102 110 112 103 106 105 103 101 102 92 86 89 82 79 100 115 130 139 134 124 128 124
8 5 6 6 2 6 7 15 22 27 18 12 23 25 55 75 81 87 95 92 93 91 94 96 95 90 95 97 103 99 94 92 96 97 96 97 91 86 80 82 85 103 78 134 132 150 129 126 113
6 13 8 6 7 13 12 13 21 11 14 16 14 31 64 77 83 89 89 87 86 95 97 90 86 99 95 86 81 78 77 81 90 91 87 88 90 82 80 80 74 73 117 105 122 131 123 128 101
6 6 6 6 8 8 9 17 17 17 13 17 15 44 65 78 84 86 90 87 83 84 92 87 82 83 89 87 82 81 81 83 83 88 89 83 79 87 78 80 76 74 102 106 127 122 124 125 105
7 12 13 8 11 8 5 24 8 13 11 7 42 67 82 82 89 96 89 82 93 93 88 78 78 80 82 81 80 83 80 83 83 83 86 82 83 80 81 91 86 83 98 103 99 133 126 132 111
Wind_Direction_850mb
296 314 325 312 53 63 279 264 251 315 342 359 9 250 233 22 142 201 144 159 107 158 177 187 191 193 195 193 194 202 206 205 197 190 188 187 189 187 181 163 159 154 154 150 154 152 149 143 136
272 304 325 83 92 81 260 262 222 295 301 313 80 29 358 302 24 41 131 194 129 167 183 189 192 196 197 191 193 203 208 210 208 196 183 179 177 170 168 161 159 156 156 157 156 154 148 144 141
279 307 323 96 122 190 211 222 338 325 314 296 110 69 45 352 27 46 325 241 192 183 194 199 197 198 199 196 199 205 207 213 214 188 183 180 174 172 171 169 162 160 159 158 158 155 153 152 145
255 244 67 110 221 247 208 144 319 329 335 278 254 97 117 160 175 246 298 249 219 202 205 208 207 204 205 203 204 206 208 215 214 198 183 183 182 178 175 176 165 163 163 162 161 159 158 158 154
217 101 59 254 258 261 271 347 340 312 292 298 307 219 161 135 200 248 269 246 231 214 217 218 215 214 213 211 210 210 213 215 216 213 187 187 186 182 188 170 178 169 165 168 164 160 159 162 158
137 88 73 240 251 274 295 352 323 320 312 309 350 305 159 142 116 211 234 269 248 248 254 232 221 223 223 220 219 217 218 221 222 218 196 188 189 192 187 178 174 178 170 168 162 161 162 163 161
130 99 220 260 260 303 320 348 91 308 300 314 329 229 271 161 105 198 209 224 234 242 255 244 236 235 231 228 226 225 225 226 229 224 211 193 192 192 191 188 183 188 180 168 157 155 163 168 168
168 102 176 251 256 261 357 355 2 26 295 329 7 36 0 359 10 333 230 230 225 237 242 244 248 244 236 231 229 230 227 229 233 230 222 198 194 194 190 191 189 171 163 161 162 166 169 177 170
135 77 207 243 190 268 1 11 345 325 283 329 36 61 113 343 309 256 295 240 240 243 241 235 235 240 244 242 237 232 232 230 235 231 223 206 200 198 195 194 184 173 176 179 172 175 177 177 175
125 145 217 266 8 322 323 342 312 314 288 288 277 242 263 282 291 297 293 278 267 252 261 258 246 243 234 243 240 238 234 230 233 228 221 215 208 202 199 197 173 180 183 186 184 188 189 178 175
173 202 232 88 67 350 312 306 271 239 262 246 287 305 306 299 290 285 281 280 281 270 264 266 259 251 245 238 240 240 237 233 228 232 224 220 214 208 206 187 187 190 187 185 193 194 194 187 184
268 8 131 250 249 316 279 281 268 240 260 284 302 302 308 317 313 302 289 293 281 269 253 253 263 261 252 245 242 245 244 238 228 229 230 224 222 217 210 198 196 199 194 191 194 197 193 191 192
14 315 299 273 291 280 275 264 273 276 280 281 286 304 299 305 313 308 299 293 284 273 274 265 253 256 256 254 250 246 243 247 244 229 232 226 226 225 215 206 197 200 203 199 199 199 195 196 193
322 304 297 305 318 325 313 283 334 279 317 267 292 308 300 291 297 301 294 288 286 286 275 270 269 256 256 261 256 252 249 246 246 235 232 233 230 228 224 205 197 199 207 205 207 204 197 199 200
316 329 317 193 21 349 346 296 228 281 280 288 298 303 299 296 290 287 294 295 292 288 284 274 269 270 261 261 266 261 258 246 248 244 235 234 229 227 225 213 202 199 205 208 209 207 202 197 203
30 43 352 12 18 347 62 276 276 286 289 299 299 302 304 306 305 301 303 303 301 296 282 279 272 269 267 260 264 265 261 256 252 246 242 236 234 229 225 219 209 203 205 207 211 208 203 201 199
17 316 312 322 340 354 57 277 267 288 294 291 293 297 299 311 313 316 309 295 290 287 292 283 276 273 274 266 264 266 268 256 255 245 245 240 237 232 227 221 214 207 205 207 210 209 210 201 199
297 309 274 248 270 9 282 267 280 284 286 284 292 289 294 304 316 319 315 297 280 274 276 288 286 283 279 275 270 269 271 266 256 257 247 242 237 238 234 224 215 209 206 207 210 211 207 205 203
191 246 248 260 276 318 267 282 288 294 291 278 275 286 297 306 310 311 319 333 302 273 280 281 282 283 289 291 290 287 273 274 266 263 258 252 244 244 237 230 220 213 210 210 210 209 208 198 199
234 258 273 286 297 322 302 295 280 282 255 233 274 292 298 312 310 300 294 278 270 267 266 263 263 273 277 283 280 278 282 279 282 275 267 259 267 232 241 230 222 216 213 213 214 210 202 204 200
227 209 251 238 328 312 326 309 316 327 273 263 271 291 300 308 303 293 274 257 257 276 285 289 288 280 279 278 275 273 271 269 268 265 265 276 270 265 232 234 222 213 206 215 217 213 210 201 194
280 174 300 313 17 295 55 286 295 276 290 263 277 283 310 313 297 260 254 261 275 285 290 301 302 289 280 276 279 281 275 273 268 264 266 264 268 263 254 230 229 219 211 211 220 218 213 214 201
234 342 293 267 101 39 328 78 268 314 277 272 265 268 303 324 267 260 257 272 290 295 292 296 302 291 282 284 285 290 285 276 269 269 264 263 259 259 255 261 218 212 210 210 215 218 214 216 216
334 339 58 55 85 352 218 144 261 232 213 243 267 311 314 301 285 276 281 290 299 299 299 300 294 292 279 281 282 285 288 282 274 263 263 261 256 253 251 249 236 219 208 210 213 220 219 216 215
75 45 338 342 0 230 162 55 249 257 247 241 273 296 310 316 300 281 300 309 306 303 303 303 299 296 283 276 284 286 286 279 274 267 260 258 251 244 243 242 242 221 216 209 215 211 221 216 217
90 116 151 262 281 282 313 234 246 217 262 268 272 295 299 309 306 297 303 305 306 304 304 302 299 296 288 285 284 284 279 276 270 265 261 255 249 241 239 241 241 242 213 210 215 214 214 218 220
136 130 128 90 158 349 245 280 284 269 261 221 270 286 306 309 308 307 306 302 304 302 303 300 294 286 283 281 280 278 270 265 262 260 258 254 247 240 239 236 234 229 229 209 218 214 211 212 221
117 146 70 16 308 291 275 271 238 252 245 277 285 300 306 303 306 306 305 303 306 309 306 300 291 290 286 280 277 268 263 260 258 256 254 252 242 231 233 231 232 233 227 214 223 218 213 215 215
134 165 114 127 168 218 296 274 215 223 219 255 276 304 305 304 306 309 307 310 309 305 311 307 300 293 289 284 276 270 265 259 253 253 249 241 240 235 225 223 226 226 219 221 219 225 216 220 212
150 181 153 149 235 238 216 270 189 211 197 269 312 311 311 306 309 314 309 310 317 320 313 302 299 297 292 288 283 277 271 265 261 251 248 244 239 233 232 225 224 224 219 219 216 217 215 218 217